Regional Weather Roundup
Issued by NWS

Home | Current Version | Previous Version | Text Only | Print | Product List | Glossary Off
Versions: 1 2 3 4 5 6 7 8 9 10 11 12 13 14 15 16 17 18 19 20 21 22 23 24 25 26 27 28 29 30 31 32 33 34 35 36 37 38 39 40 41 42 43 44 45 46 47 48 49 50

000
ASUS43 KLMK 210810
RWRKY
KENTUCKY REGIONAL WEATHER ROUNDUP
NATIONAL WEATHER SERVICE LOUISVILLE KY
400 AM EDT MON AUG 21 2017

NOTE "FAIR" INDICATES FEW OR NO CLOUDS BELOW 12,000 FEET
WITH NO SIGNIFICANT WEATHER AND/OR OBSTRUCTIONS TO VISIBILITY.

KYZ001>023-026-027-061>063-070>075-210900-
WESTERN AND SOUTH CENTRAL KENTUCKY

CITY           SKY/WX    TMP DP  RH WIND       PRES   REMARKS
PADUCAH        CLOUDY    70  66  87 CALM      30.08S
HENDERSON      PTCLDY    68  66  93 CALM      30.10S
OWENSBORO      PTCLDY    72  68  87 SE5       30.11S
HOPKINSVILLE   PTCLDY    73  69  89 E3        30.11S
BOWLING GREEN  PTCLDY    70  68  93 CALM      30.13R
GLASGOW        PTCLDY   N/A N/A N/A CALM      30.14R
$$

KYZ024-025-028>034-038-045-046-053-210900-
NORTH CENTRAL KENTUCKY

CITY           SKY/WX    TMP DP  RH WIND       PRES   REMARKS
LOUISVILLE/SDF MOCLDY    78  66  66 SW3       30.12S
LOUISVILLE/LOU PTCLDY    72  71  97 CALM      30.13R
FORT KNOX      PTCLDY    70  68  94 CALM      30.12S
$$

KYZ035>037-039>044-047>052-055>060-089>105-210900-
NORTHEAST KENTUCKY

CITY           SKY/WX    TMP DP  RH WIND       PRES   REMARKS
LEXINGTON      CLEAR     73  66  78 S6        30.16R
COVINGTON      PTCLDY    73  69  87 SW6       30.13F
FRANKFORT      CLEAR     70  65  84 CALM      30.13S
$$

KYZ054-064>069-076>088-106>120-210900-
SOUTHEAST KENTUCKY

CITY           SKY/WX    TMP DP  RH WIND       PRES   REMARKS
JACKSON        CLEAR     72  67  84 CALM      30.19R
LONDON         CLOUDY    67  65  93 CALM      30.18S
SOMERSET       CLEAR     64  64 100 CALM      30.17S
MIDDLESBORO    CLOUDY    67  67 100 CALM      30.21R FOG
MONTICELLO     MOSUNNY   66  65  96 NW3       30.18S
$$





USA.gov is the U.S. government's official web portal to all federal, state and local government web resources and services.